Location: Antoign�
(47.0844°N, 0.1131°W)
Time: 22:29:56
(UTC+00:00)

Meteor 1-13 Rocket - Pass Details

Date: 03 March 2021
Orbit: 830 x 913 km, 81.3° (Epoch: 14 April)

Event Time Altitude Azimuth Distance (km) Brightness Sun altitude
Rises 19:35:21 0° 349° (N) 3,558 7.7 -18.8°
Reaches altitude 10° 19:37:51 10° 351° (N) 2,610 7.0 -19.3°
Maximum altitude 19:43:50 76° 78° (ENE) 934 4.2 -20.2°
Enters shadow 19:48:37 16° 163° (SSE) 2,160 6.0 -21.0°
